| time (UTC) | temp F | wind direction | speed MPH | gust MPH | rain 1hr in | rain 24hr in | rain mn in | humidity % | barometer mb |
| 20260906225120 | 61 | 286 | 3.0 | 8.0 | 0.00 | 0.02 | 0.02 | 87 | 1015.5 |
| 20260906224615 | 61 | 304 | 5.0 | 10.0 | 0.00 | 0.02 | 0.02 | 87 | 1015.7 |
| 20260906224112 | 60 | 287 | 3.0 | 9.0 | 0.00 | 0.02 | 0.02 | 87 | 1015.6 |
| 20260906223608 | 60 | 314 | 6.0 | 9.0 | 0.00 | 0.02 | 0.02 | 87 | 1015.7 |
| 20260906223107 | 60 | 279 | 7.0 | 8.0 | 0.00 | 0.02 | 0.02 | 87 | 1015.5 |
| 20260906222606 | 60 | 288 | 5.0 | 10.0 | 0.00 | 0.02 | 0.02 | 88 | 1015.5 |
| 20260906222104 | 60 | 320 | 5.0 | 10.0 | 0.00 | 0.02 | 0.02 | 87 | 1015.5 |
| 20260906221602 | 60 | 316 | 4.0 | 10.0 | 0.00 | 0.02 | 0.02 | 87 | 1015.5 |
| 20260906221058 | 60 | 351 | 3.0 | 8.0 | 0.00 | 0.02 | 0.02 | 87 | 1015.6 |
| 20260906220552 | 60 | 321 | 8.0 | 10.0 | 0.00 | 0.02 | 0.02 | 87 | 1015.7 |
| 20260906220048 | 60 | 326 | 5.0 | 7.0 | 0.00 | 0.02 | 0.02 | 88 | 1015.7 |
| 20260906215547 | 60 | 300 | 7.0 | 10.0 | 0.00 | 0.02 | 0.02 | 88 | 1015.5 |
| 20260906215045 | 60 | 314 | 5.0 | 9.0 | 0.00 | 0.02 | 0.02 | 88 | 1015.5 |
| 20260906214544 | 60 | 350 | 7.0 | 10.0 | 0.00 | 0.02 | 0.02 | 87 | 1015.4 |
| 20260906214039 | 60 | 307 | 5.0 | 9.0 | 0.00 | 0.02 | 0.02 | 87 | 1015.6 |
| 20260906213538 | 60 | 323 | 7.0 | 9.0 | 0.00 | 0.02 | 0.02 | 87 | 1015.5 |
| 20260906213033 | 60 | 316 | 6.0 | 10.0 | 0.00 | 0.02 | 0.02 | 87 | 1015.5 |
| 20260906212526 | 60 | 319 | 5.0 | 10.0 | 0.00 | 0.02 | 0.02 | 87 | 1015.6 |
| 20260906212022 | 60 | 337 | 5.0 | 9.0 | 0.00 | 0.02 | 0.02 | 87 | 1015.6 |
| 20260906211516 | 60 | 349 | 8.0 | 10.0 | 0.00 | 0.02 | 0.02 | 87 | 1015.5 |
| 20260906211011 | 60 | 314 | 2.0 | 11.0 | 0.00 | 0.02 | 0.02 | 87 | 1015.7 |
| 20260906210501 | 60 | 322 | 9.0 | 15.0 | 0.00 | 0.02 | 0.02 | 86 | 1015.6 |
| 20260906210000 | 61 | 335 | 9.0 | 13.0 | 0.00 | 0.02 | 0.02 | 86 | 1015.5 |
| 20260906205456 | 60 | 348 | 9.0 | 13.0 | 0.00 | 0.02 | 0.02 | 86 | 1015.6 |
| 20260906204952 | 60 | 286 | 11.0 | 14.0 | 0.00 | 0.02 | 0.02 | 86 | 1015.5 |
| 20260906204451 | 60 | 286 | 11.0 | 14.0 | 0.00 | 0.02 | 0.02 | 87 | 1015.6 |
| 20260906203950 | 60 | 341 | 8.0 | 14.0 | 0.00 | 0.02 | 0.02 | 87 | 1015.6 |
| 20260906203446 | 60 | 309 | 10.0 | 13.0 | 0.00 | 0.02 | 0.02 | 86 | 1015.6 |
| 20260906202944 | 60 | 338 | 7.0 | 13.0 | 0.00 | 0.02 | 0.02 | 87 | 1015.7 |
| 20260906202442 | 60 | 325 | 11.0 | 14.0 | 0.00 | 0.02 | 0.02 | 87 | 1015.6 |
| 20260906201938 | 60 | 349 | 6.0 | 13.0 | 0.00 | 0.02 | 0.02 | 86 | 1015.8 |
| 20260906201432 | 60 | 329 | 6.0 | 10.0 | 0.00 | 0.02 | 0.02 | 87 | 1015.7 |
| 20260906200927 | 60 | 321 | 6.0 | 10.0 | 0.00 | 0.02 | 0.02 | 87 | 1015.7 |
| 20260906200424 | 60 | 340 | 10.0 | 13.0 | 0.00 | 0.02 | 0.02 | 87 | 1015.6 |
| 20260906195923 | 60 | 339 | 10.0 | 15.0 | 0.00 | 0.02 | 0.02 | 87 | 1015.7 |
| 20260906195420 | 60 | 319 | 10.0 | 11.0 | 0.00 | 0.02 | 0.02 | 86 | 1015.8 |
| 20260906194916 | 60 | 342 | 9.0 | 14.0 | 0.00 | 0.02 | 0.02 | 86 | 1015.8 |
| 20260906194411 | 60 | 350 | 8.0 | 14.0 | 0.00 | 0.02 | 0.02 | 85 | 1015.7 |
| 20260906193906 | 61 | 4 | 6.0 | 14.0 | 0.00 | 0.02 | 0.02 | 85 | 1015.8 |
| 20260906193401 | 61 | 339 | 9.0 | 11.0 | 0.00 | 0.02 | 0.02 | 84 | 1015.7 |
| 20260906192856 | 61 | 357 | 9.0 | 13.0 | 0.00 | 0.02 | 0.02 | 84 | 1015.7 |
| 20260906192350 | 60 | 5 | 9.0 | 15.0 | 0.00 | 0.02 | 0.02 | 83 | 1015.8 |
| 20260906191850 | 60 | 335 | 11.0 | 14.0 | 0.00 | 0.02 | 0.02 | 83 | 1015.6 |
| 20260906191345 | 60 | 348 | 10.0 | 13.0 | 0.00 | 0.02 | 0.02 | 83 | 1015.6 |
| 20260906190844 | 61 | 335 | 11.0 | 14.0 | 0.00 | 0.02 | 0.02 | 83 | 1015.8 |
| 20260906190344 | 60 | 23 | 9.0 | 15.0 | 0.00 | 0.02 | 0.02 | 84 | 1015.7 |
| 20260906185839 | 60 | 2 | 10.0 | 15.0 | 0.00 | 0.02 | 0.02 | 83 | 1015.9 |
| 20260906185337 | 59 | 7 | 9.0 | 15.0 | 0.00 | 0.02 | 0.02 | 85 | 1016.2 |
| 20260906184832 | 59 | 357 | 8.0 | 13.0 | 0.00 | 0.02 | 0.02 | 86 | 1016.2 |
| 20260906184327 | 59 | 8 | 8.0 | 15.0 | 0.00 | 0.02 | 0.02 | 85 | 1016.3 |
| 20260906183822 | 58 | 344 | 9.0 | 15.0 | 0.00 | 0.02 | 0.02 | 87 | 1016.1 |
| 20260906183319 | 58 | 359 | 6.0 | 11.0 | 0.00 | 0.02 | 0.02 | 88 | 1016.4 |
| 20260906182819 | 58 | 345 | 9.0 | 15.0 | 0.00 | 0.02 | 0.02 | 88 | 1016.3 |
| 20260906182314 | 58 | 9 | 12.0 | 14.0 | 0.00 | 0.02 | 0.02 | 88 | 1016.5 |
| 20260906181814 | 57 | 348 | 8.0 | 14.0 | 0.00 | 0.02 | 0.02 | 90 | 1016.6 |
| 20260906181311 | 57 | 353 | 10.0 | 14.0 | 0.00 | 0.02 | 0.02 | 90 | 1016.6 |
| 20260906180806 | 56 | 14 | 8.0 | 13.0 | 0.00 | 0.02 | 0.02 | 91 | 1016.6 |
| 20260906180301 | 56 | 12 | 1.0 | 13.0 | 0.00 | 0.02 | 0.02 | 92 | 1017.0 |
| 20260906175758 | 56 | 326 | 8.0 | 10.0 | 0.00 | 0.02 | 0.02 | 92 | 1017.5 |
| 20260906175254 | 55 | 355 | 7.0 | 9.0 | 0.00 | 0.02 | 0.02 | 92 | 1017.6 |
| 20260906174752 | 55 | 340 | 7.0 | 13.0 | 0.00 | 0.02 | 0.02 | 92 | 1017.9 |
| 20260906174252 | 55 | 303 | 11.0 | 11.0 | 0.00 | 0.02 | 0.02 | 93 | 1017.9 |
| 20260906173747 | 55 | 334 | 9.0 | 11.0 | 0.00 | 0.02 | 0.02 | 93 | 1017.8 |
| 20260906173243 | 55 | 306 | 8.0 | 13.0 | 0.00 | 0.02 | 0.02 | 93 | 1018.3 |
| 20260906172742 | 55 | 312 | 7.0 | 13.0 | 0.00 | 0.02 | 0.02 | 93 | 1018.3 |
| 20260906172237 | 55 | 345 | 8.0 | 13.0 | 0.00 | 0.02 | 0.02 | 94 | 1018.0 |
| 20260906171732 | 55 | 338 | 3.0 | 11.0 | 0.00 | 0.02 | 0.02 | 94 | 1018.1 |
| 20260906171228 | 55 | 322 | 2.0 | 13.0 | 0.00 | 0.02 | 0.02 | 94 | 1018.1 |
| 20260906170723 | 55 | 315 | 9.0 | 14.0 | 0.00 | 0.02 | 0.02 | 94 | 1018.3 |
| 20260906170219 | 55 | 307 | 5.0 | 11.0 | 0.00 | 0.02 | 0.02 | 94 | 1018.4 |
| 20260906165715 | 55 | 316 | 9.0 | 13.0 | 0.00 | 0.02 | 0.02 | 94 | 1017.9 |
| 20260906165210 | 54 | 339 | 9.0 | 11.0 | 0.00 | 0.02 | 0.02 | 94 | 1018.0 |
| 20260906164709 | 55 | 341 | 5.0 | 13.0 | 0.00 | 0.02 | 0.02 | 94 | 1017.7 |
| 20260906164204 | 54 | 2 | 11.0 | 16.0 | 0.07 | 0.02 | 0.02 | 94 | 1017.9 |
| 20260906163700 | 54 | 347 | 8.0 | 11.0 | 0.07 | 0.02 | 0.02 | 94 | 1017.7 |
| 20260906163156 | 54 | 318 | 9.0 | 14.0 | 0.00 | 0.01 | 0.01 | 94 | 1017.9 |
| 20260906162653 | 54 | 303 | 9.0 | 13.0 | 0.05 | 0.01 | 0.01 | 93 | 1018.0 |
| 20260906162152 | 55 | 338 | 7.0 | 11.0 | 0.05 | 0.01 | 0.01 | 93 | 1018.0 |
| 20260906161647 | 55 | 327 | 10.0 | 14.0 | 0.00 | 0.00 | 0.00 | 93 | 1018.3 |
| 20260906161146 | 55 | 337 | 10.0 | 16.0 | 0.00 | 0.00 | 0.00 | 92 | 1018.0 |
| 20260906160645 | 55 | 313 | 9.0 | 15.0 | 0.00 | 0.00 | 0.00 | 92 | 1018.3 |
| 20260906160144 | 55 | 348 | 9.0 | 17.0 | 0.00 | 0.00 | 0.00 | 92 | 1018.1 |
| 20260906155642 | 55 | 301 | 12.0 | 18.0 | 0.00 | 0.00 | 0.00 | 91 | 1018.4 |
| 20260906155138 | 55 | 317 | 7.0 | 18.0 | 0.00 | 0.00 | 0.00 | 91 | 1018.7 |
| 20260906154632 | 55 | 312 | 13.0 | 16.0 | 0.00 | 0.00 | 0.00 | 91 | 1018.5 |
| 20260906154127 | 55 | 298 | 10.0 | 16.0 | 0.00 | 0.00 | 0.00 | 91 | 1018.3 |
| 20260906153626 | 55 | 298 | 13.0 | 20.0 | 0.00 | 0.00 | 0.00 | 91 | 1017.8 |
| 20260906153121 | 55 | 325 | 11.0 | 17.0 | 0.00 | 0.00 | 0.00 | 91 | 1018.3 |
| 20260906152621 | 55 | 344 | 11.0 | 20.0 | 0.00 | 0.00 | 0.00 | 92 | 1018.4 |
| 20260906152115 | 55 | 295 | 12.0 | 17.0 | 0.00 | 0.00 | 0.00 | 92 | 1018.5 |
| 20260906151610 | 55 | 317 | 12.0 | 17.0 | 0.00 | 0.00 | 0.00 | 92 | 1018.5 |
| 20260906151106 | 56 | 286 | 10.0 | 13.0 | 0.00 | 0.00 | 0.00 | 92 | 1018.6 |
| 20260906150601 | 57 | 323 | 14.0 | 16.0 | 0.00 | 0.00 | 0.00 | 92 | 1018.4 |
| 20260906150056 | 57 | 288 | 12.0 | 16.0 | 0.00 | 0.00 | 0.00 | 93 | 1018.3 |
| 20260906145555 | 57 | 307 | 8.0 | 9.0 | 0.00 | 0.00 | 0.00 | 93 | 1018.3 |
| 20260906145050 | 57 | 312 | 1.0 | 5.0 | 0.00 | 0.00 | 0.00 | 93 | 1018.5 |
| 20260906144538 | 57 | 306 | 0.0 | 0.0 | 0.00 | 0.00 | 0.00 | 93 | 1018.3 |
| 20260906144034 | 56 | 346 | 0.0 | 3.0 | 0.00 | 0.00 | 0.00 | 93 | 1018.3 |
| 20260906143528 | 56 | 354 | 2.0 | 7.0 | 0.00 | 0.00 | 0.00 | 93 | 1017.9 |
| 20260906143025 | 56 | 349 | 5.0 | 7.0 | 0.00 | 0.00 | 0.00 | 93 | 1018.0 |
| 20260906142519 | 56 | 354 | 1.0 | 2.0 | 0.00 | 0.00 | 0.00 | 93 | 1018.1 |
| 20260906142015 | 56 | 328 | 2.0 | 5.0 | 0.00 | 0.00 | 0.00 | 93 | 1018.1 |
| 20260906141513 | 56 | 310 | 5.0 | 7.0 | 0.00 | 0.00 | 0.00 | 93 | 1018.5 |
| 20260906141009 | 56 | 295 | 6.0 | 9.0 | 0.00 | 0.00 | 0.00 | 93 | 1018.6 |
| 20260906140503 | 56 | 307 | 5.0 | 8.0 | 0.00 | 0.00 | 0.00 | 93 | 1018.3 |
| 20260906140002 | 56 | 307 | 8.0 | 9.0 | 0.00 | 0.00 | 0.00 | 93 | 1018.1 |
| 20260906135459 | 56 | 325 | 3.0 | 7.0 | 0.00 | 0.00 | 0.00 | 93 | 1018.0 |
| 20260906134955 | 56 | 331 | 5.0 | 7.0 | 0.00 | 0.00 | 0.00 | 93 | 1017.9 |
| 20260906134450 | 56 | 313 | 1.0 | 3.0 | 0.00 | 0.00 | 0.00 | 94 | 1018.0 |
| 20260906133945 | 56 | 311 | 0.0 | 5.0 | 0.00 | 0.00 | 0.00 | 93 | 1017.9 |
| 20260906133441 | 56 | 279 | 0.0 | 3.0 | 0.00 | 0.00 | 0.00 | 93 | 1018.1 |
| 20260906132936 | 56 | 309 | 3.0 | 10.0 | 0.00 | 0.00 | 0.00 | 93 | 1018.1 |
| 20260906132431 | 57 | 334 | 8.0 | 9.0 | 0.00 | 0.00 | 0.00 | 93 | 1018.1 |
| 20260906131927 | 57 | 328 | 7.0 | 10.0 | 0.00 | 0.00 | 0.00 | 92 | 1018.1 |
| 20260906131422 | 57 | 331 | 0.0 | 6.0 | 0.00 | 0.00 | 0.00 | 92 | 1018.3 |
| 20260906130918 | 57 | 357 | 3.0 | 11.0 | 0.00 | 0.00 | 0.00 | 92 | 1018.3 |
| 20260906130416 | 57 | 9 | 1.0 | 9.0 | 0.00 | 0.00 | 0.00 | 93 | 1017.9 |
| 20260906125911 | 57 | 354 | 8.0 | 9.0 | 0.00 | 0.00 | 0.00 | 94 | 1018.1 |
| 20260906125408 | 56 | 10 | 5.0 | 9.0 | 0.00 | 0.00 | 0.00 | 94 | 1018.1 |
| 20260906124903 | 55 | 18 | 3.0 | 5.0 | 0.00 | 0.00 | 0.00 | 95 | 1017.9 |
| 20260906124359 | 55 | 348 | 0.0 | 0.0 | 0.00 | 0.00 | 0.00 | 95 | 1018.3 |
| 20260906123858 | 55 | 298 | 0.0 | 1.0 | 0.00 | 0.00 | 0.00 | 95 | 1018.3 |
| 20260906123353 | 55 | 319 | 0.0 | 2.0 | 0.00 | 0.00 | 0.00 | 95 | 1018.4 |
| 20260906122852 | 55 | 320 | 3.0 | 6.0 | 0.00 | 0.00 | 0.00 | 95 | 1018.4 |
| 20260906122347 | 55 | 308 | 0.0 | 0.0 | 0.00 | 0.00 | 0.00 | 95 | 1018.7 |
| 20260906121844 | 55 | 294 | 0.0 | 0.0 | 0.00 | 0.00 | 0.00 | 95 | 1018.8 |
| 20260906121340 | 55 | 283 | 0.0 | 0.0 | 0.00 | 0.00 | 0.00 | 95 | 1018.7 |
| 20260906120836 | 55 | 305 | 0.0 | 0.0 | 0.00 | 0.00 | 0.00 | 95 | 1018.6 |
| 20260906120331 | 55 | 296 | 0.0 | 0.0 | 0.00 | 0.00 | 0.00 | 95 | 1018.7 |
| 20260906115827 | 55 | 304 | 0.0 | 2.0 | 0.00 | 0.00 | 0.00 | 95 | 1018.7 |
| 20260906115323 | 55 | 296 | 0.0 | 3.0 | 0.00 | 0.00 | 0.00 | 95 | 1018.8 |
| 20260906114822 | 55 | 308 | 0.0 | 0.0 | 0.00 | 0.00 | 0.00 | 95 | 1018.7 |
| 20260906114317 | 55 | 312 | 0.0 | 0.0 | 0.00 | 0.00 | 0.00 | 95 | 1018.5 |
| 20260906113812 | 55 | 349 | 0.0 | 0.0 | 0.00 | 0.00 | 0.00 | 95 | 1018.6 |
| 20260906113311 | 55 | 324 | 3.0 | 6.0 | 0.00 | 0.00 | 0.00 | 95 | 1018.5 |
| 20260906112807 | 55 | 10 | 4.0 | 8.0 | 0.00 | 0.00 | 0.00 | 95 | 1018.3 |
| 20260906112306 | 55 | 1 | 0.0 | 2.0 | 0.00 | 0.00 | 0.00 | 94 | 1018.6 |
| 20260906111803 | 55 | 351 | 1.0 | 6.0 | 0.00 | 0.00 | 0.00 | 94 | 1018.4 |
| 20260906111301 | 55 | 11 | 1.0 | 6.0 | 0.00 | 0.00 | 0.00 | 94 | 1018.1 |
| 20260906110757 | 55 | 351 | 2.0 | 7.0 | 0.00 | 0.00 | 0.00 | 94 | 1018.5 |
| 20260906110253 | 55 | 322 | 7.0 | 9.0 | 0.00 | 0.00 | 0.00 | 94 | 1018.3 |
| 20260906105751 | 55 | 299 | 6.0 | 9.0 | 0.00 | 0.00 | 0.00 | 94 | 1018.6 |
| 20260906105242 | 55 | 340 | 8.0 | 10.0 | 0.00 | 0.00 | 0.00 | 94 | 1018.5 |
| 20260906104737 | 55 | 345 | 0.0 | 8.0 | 0.00 | 0.00 | 0.00 | 94 | 1018.7 |
| 20260906104236 | 55 | 317 | 2.0 | 8.0 | 0.00 | 0.00 | 0.00 | 94 | 1018.5 |
| 20260906103734 | 55 | 315 | 5.0 | 9.0 | 0.00 | 0.00 | 0.00 | 94 | 1018.6 |
| 20260906103228 | 54 | 345 | 5.0 | 11.0 | 0.00 | 0.00 | 0.00 | 94 | 1018.5 |
| 20260906102724 | 54 | 3 | 11.0 | 14.0 | 0.00 | 0.00 | 0.00 | 94 | 1018.6 |
| 20260906102223 | 54 | 6 | 12.0 | 14.0 | 0.00 | 0.00 | 0.00 | 94 | 1018.7 |
| 20260906101718 | 54 | 342 | 11.0 | 14.0 | 0.00 | 0.00 | 0.00 | 94 | 1018.7 |
| 20260906101213 | 54 | 8 | 15.0 | 21.0 | 0.00 | 0.00 | 0.00 | 94 | 1018.6 |
| 20260906100709 | 54 | 350 | 11.0 | 17.0 | 0.00 | 0.00 | 0.00 | 94 | 1018.6 |
| 20260906100209 | 54 | 7 | 9.0 | 20.0 | 0.00 | 0.00 | 0.00 | 94 | 1018.5 |
| 20260906095703 | 54 | 10 | 14.0 | 17.0 | 0.00 | 0.00 | 0.00 | 94 | 1018.5 |
| 20260906095159 | 54 | 342 | 12.0 | 15.0 | 0.00 | 0.00 | 0.00 | 94 | 1018.5 |
| 20260906094657 | 54 | 309 | 9.0 | 16.0 | 0.00 | 0.00 | 0.00 | 94 | 1018.7 |
| 20260906094153 | 54 | 0 | 9.0 | 11.0 | 0.00 | 0.00 | 0.00 | 94 | 1019.1 |
| 20260906093649 | 54 | 324 | 6.0 | 14.0 | 0.00 | 0.00 | 0.00 | 94 | 1019.0 |
| 20260906093150 | 54 | 341 | 7.0 | 15.0 | 0.00 | 0.00 | 0.00 | 94 | 1019.2 |
| 20260906092644 | 54 | 352 | 8.0 | 14.0 | 0.00 | 0.00 | 0.00 | 94 | 1019.2 |
| 20260906092139 | 54 | 349 | 9.0 | 16.0 | 0.00 | 0.00 | 0.00 | 94 | 1019.2 |
| 20260906091635 | 54 | 310 | 7.0 | 11.0 | 0.00 | 0.00 | 0.00 | 94 | 1019.4 |
| 20260906091132 | 54 | 328 | 6.0 | 15.0 | 0.00 | 0.00 | 0.00 | 94 | 1019.5 |
| 20260906090627 | 54 | 332 | 9.0 | 11.0 | 0.00 | 0.00 | 0.00 | 94 | 1019.2 |
| 20260906090126 | 54 | 11 | 10.0 | 17.0 | 0.00 | 0.00 | 0.00 | 94 | 1019.2 |
| 20260906085626 | 54 | 7 | 12.0 | 18.0 | 0.00 | 0.00 | 0.00 | 94 | 1019.4 |
| 20260906085120 | 54 | 329 | 13.0 | 18.0 | 0.00 | 0.00 | 0.00 | 94 | 1019.5 |
| 20260906084615 | 54 | 338 | 14.0 | 17.0 | 0.00 | 0.00 | 0.00 | 94 | 1019.5 |
| 20260906084114 | 54 | 341 | 8.0 | 11.0 | 0.00 | 0.00 | 0.00 | 94 | 1019.5 |
| 20260906083610 | 54 | 333 | 5.0 | 16.0 | 0.00 | 0.00 | 0.00 | 94 | 1019.6 |
| 20260906083109 | 54 | 317 | 8.0 | 15.0 | 0.00 | 0.00 | 0.00 | 94 | 1019.6 |
| 20260906082605 | 54 | 332 | 9.0 | 13.0 | 0.00 | 0.00 | 0.00 | 94 | 1019.7 |
| 20260906082100 | 54 | 341 | 7.0 | 11.0 | 0.00 | 0.00 | 0.00 | 94 | 1019.7 |
| 20260906081556 | 54 | 335 | 7.0 | 11.0 | 0.00 | 0.00 | 0.00 | 94 | 1019.7 |
| 20260906081051 | 54 | 310 | 7.0 | 11.0 | 0.00 | 0.00 | 0.00 | 94 | 1019.6 |
| 20260906080548 | 54 | 333 | 11.0 | 14.0 | 0.00 | 0.00 | 0.00 | 94 | 1019.8 |
| 20260906080043 | 54 | 339 | 9.0 | 11.0 | 0.00 | 0.00 | 0.00 | 94 | 1019.7 |
| 20260906075537 | 54 | 280 | 8.0 | 11.0 | 0.00 | 0.00 | 0.00 | 94 | 1019.7 |
| 20260906075032 | 54 | 343 | 8.0 | 13.0 | 0.00 | 0.00 | 0.00 | 94 | 1019.8 |
| 20260906074527 | 54 | 341 | 6.0 | 9.0 | 0.00 | 0.00 | 0.00 | 94 | 1019.7 |
| 20260906074025 | 54 | 325 | 5.0 | 8.0 | 0.00 | 0.00 | 0.00 | 94 | 1020.0 |
| 20260906073521 | 54 | 306 | 5.0 | 10.0 | 0.00 | 0.00 | 0.00 | 94 | 1020.0 |
| 20260906073017 | 55 | 310 | 3.0 | 11.0 | 0.00 | 0.00 | 0.00 | 93 | 1020.2 |
| 20260906072511 | 55 | 301 | 3.0 | 10.0 | 0.00 | 0.00 | 0.00 | 93 | 1020.1 |
| 20260906072008 | 55 | 4 | 9.0 | 15.0 | 0.00 | 0.00 | 0.00 | 93 | 1020.0 |
| 20260906071503 | 55 | 352 | 8.0 | 13.0 | 0.00 | 0.00 | 0.00 | 93 | 1020.3 |
| 20260906070958 | 55 | 335 | 9.0 | 11.0 | 0.00 | 0.00 | 0.00 | 93 | 1020.1 |
| 20260906070454 | 55 | 342 | 10.0 | 15.0 | 0.00 | 0.00 | 0.00 | 93 | 1020.5 |
| 20260906065950 | 55 | 319 | 9.0 | 13.0 | 0.00 | 0.00 | 0.00 | 93 | 1020.6 |
| 20260906065444 | 55 | 322 | 4.0 | 10.0 | 0.00 | 0.00 | 0.00 | 94 | 1020.7 |
| 20260906064939 | 55 | 301 | 9.0 | 11.0 | 0.00 | 0.00 | 0.00 | 94 | 1020.6 |
| 20260906064435 | 55 | 321 | 9.0 | 11.0 | 0.00 | 0.00 | 0.00 | 94 | 1020.9 |
| 20260906063930 | 55 | 324 | 9.0 | 10.0 | 0.00 | 0.00 | 0.00 | 93 | 1020.9 |
| 20260906063426 | 55 | 315 | 9.0 | 14.0 | 0.00 | 0.00 | 0.00 | 93 | 1021.0 |
| 20260906062921 | 54 | 302 | 8.0 | 11.0 | 0.00 | 0.00 | 0.00 | 93 | 1021.0 |
| 20260906062421 | 54 | 314 | 8.0 | 11.0 | 0.00 | 0.00 | 0.00 | 93 | 1020.5 |
| 20260906061915 | 54 | 334 | 9.0 | 14.0 | 0.00 | 0.00 | 0.00 | 93 | 1020.2 |
| 20260906061406 | 55 | 336 | 9.0 | 13.0 | 0.00 | 0.00 | 0.00 | 93 | 1020.2 |
| 20260906060900 | 55 | 319 | 11.0 | 14.0 | 0.00 | 0.00 | 0.00 | 93 | 1020.3 |
| 20260906060358 | 55 | 328 | 8.0 | 13.0 | 0.00 | 0.00 | 0.00 | 92 | 1020.3 |
| 20260906055854 | 54 | 4 | 12.0 | 15.0 | 0.00 | 0.13 | 0.13 | 93 | 1020.2 |
| 20260906055349 | 54 | 334 | 7.0 | 13.0 | 0.00 | 0.13 | 0.13 | 93 | 1020.3 |
| 20260906054844 | 54 | 336 | 7.0 | 9.0 | 0.00 | 0.13 | 0.13 | 93 | 1020.5 |
| 20260906054339 | 54 | 338 | 4.0 | 10.0 | 0.12 | 0.13 | 0.13 | 93 | 1020.3 |
| 20260906053836 | 55 | 345 | 1.0 | 7.0 | 0.24 | 0.13 | 0.13 | 92 | 1020.3 |
| 20260906053331 | 55 | 326 | 7.0 | 13.0 | 0.05 | 0.10 | 0.10 | 92 | 1020.2 |
| 20260906052826 | 55 | 328 | 11.0 | 15.0 | 0.00 | 0.09 | 0.09 | 91 | 1020.1 |
| 20260906052323 | 55 | 277 | 8.0 | 14.0 | 0.00 | 0.09 | 0.09 | 92 | 1021.4 |
| 20260906051820 | 55 | 252 | 7.0 | 11.0 | 0.00 | 0.09 | 0.09 | 91 | 1021.7 |
| 20260906051319 | 55 | 301 | 4.0 | 8.0 | 0.00 | 0.09 | 0.09 | 91 | 1020.8 |
| 20260906050815 | 55 | 312 | 6.0 | 10.0 | 0.00 | 0.09 | 0.09 | 91 | 1020.6 |
| 20260906050310 | 55 | 325 | 5.0 | 9.0 | 0.07 | 0.09 | 0.09 | 91 | 1020.0 |
| 20260906045808 | 55 | 347 | 2.0 | 13.0 | 0.00 | 0.08 | 0.08 | 91 | 1020.0 |
| 20260906045305 | 55 | 336 | 8.0 | 13.0 | 0.00 | 0.08 | 0.08 | 92 | 1019.7 |
| 20260906044759 | 55 | 298 | 5.0 | 8.0 | 0.00 | 0.08 | 0.08 | 91 | 1019.9 |
| 20260906044254 | 55 | 310 | 8.0 | 14.0 | 0.00 | 0.08 | 0.08 | 91 | 1020.1 |
| 20260906043750 | 55 | 323 | 9.0 | 15.0 | 0.00 | 0.08 | 0.08 | 90 | 1019.8 |
| 20260906043246 | 56 | 351 | 6.0 | 11.0 | 0.00 | 0.08 | 0.08 | 90 | 1020.0 |
| 20260906042745 | 56 | 348 | 9.0 | 13.0 | 0.00 | 0.08 | 0.08 | 89 | 1020.0 |
| 20260906042244 | 55 | 346 | 7.0 | 11.0 | 0.00 | 0.08 | 0.08 | 90 | 1019.7 |
| 20260906041740 | 55 | 322 | 6.0 | 11.0 | 0.00 | 0.08 | 0.08 | 89 | 1019.8 |
| 20260906041235 | 56 | 278 | 11.0 | 17.0 | 0.17 | 0.08 | 0.08 | 88 | 1019.5 |
| 20260906040731 | 57 | 340 | 15.0 | 22.0 | 0.19 | 0.07 | 0.07 | 85 | 1019.7 |
| 20260906040226 | 58 | 323 | 8.0 | 11.0 | 0.00 | 0.04 | 0.04 | 81 | 1021.2 |
| 20260906035721 | 58 | 282 | 3.0 | 8.0 | 0.00 | 0.04 | 0.04 | 79 | 1021.8 |
| 20260906035217 | 57 | 294 | 2.0 | 7.0 | 0.00 | 0.04 | 0.04 | 79 | 1021.3 |
| 20260906034716 | 57 | 286 | 6.0 | 11.0 | 0.00 | 0.04 | 0.04 | 80 | 1020.7 |
| 20260906034211 | 56 | 314 | 7.0 | 10.0 | 0.00 | 0.04 | 0.04 | 81 | 1019.9 |
| 20260906033707 | 56 | 324 | 7.0 | 10.0 | 0.00 | 0.04 | 0.04 | 81 | 1019.7 |
| 20260906033207 | 56 | 325 | 7.0 | 10.0 | 0.00 | 0.04 | 0.04 | 81 | 1019.8 |
| 20260906032704 | 57 | 333 | 9.0 | 10.0 | 0.00 | 0.04 | 0.04 | 81 | 1019.6 |
| 20260906032158 | 56 | 301 | 7.0 | 10.0 | 0.00 | 0.04 | 0.04 | 80 | 1019.5 |
| 20260906031653 | 56 | 339 | 7.0 | 9.0 | 0.00 | 0.04 | 0.04 | 80 | 1019.5 |
| 20260906031149 | 56 | 326 | 5.0 | 9.0 | 0.00 | 0.04 | 0.04 | 80 | 1019.7 |
| 20260906030648 | 56 | 327 | 6.0 | 8.0 | 0.00 | 0.04 | 0.04 | 80 | 1019.4 |
| 20260906030144 | 56 | 348 | 6.0 | 8.0 | 0.00 | 0.04 | 0.04 | 79 | 1019.2 |
| 20260906025643 | 57 | 320 | 8.0 | 10.0 | 0.00 | 0.04 | 0.04 | 78 | 1019.1 |
| 20260906025142 | 57 | 332 | 5.0 | 11.0 | 0.00 | 0.04 | 0.04 | 77 | 1019.0 |
| 20260906024637 | 57 | 339 | 9.0 | 11.0 | 0.00 | 0.04 | 0.04 | 77 | 1019.2 |
| 20260906024136 | 58 | 358 | 8.0 | 11.0 | 0.00 | 0.04 | 0.04 | 77 | 1019.1 |
| 20260906023633 | 58 | 354 | 6.0 | 11.0 | 0.00 | 0.04 | 0.04 | 77 | 1019.0 |
| 20260906023132 | 58 | 5 | 7.0 | 11.0 | 0.00 | 0.04 | 0.04 | 76 | 1018.9 |
| 20260906022627 | 58 | 345 | 9.0 | 13.0 | 0.00 | 0.04 | 0.04 | 76 | 1019.0 |
| 20260906022123 | 59 | 356 | 8.0 | 15.0 | 0.00 | 0.04 | 0.04 | 75 | 1019.0 |
| 20260906021619 | 59 | 1 | 10.0 | 14.0 | 0.00 | 0.04 | 0.04 | 74 | 1018.9 |
| 20260906021117 | 59 | 0 | 8.0 | 10.0 | 0.00 | 0.04 | 0.04 | 73 | 1019.0 |
| 20260906020617 | 59 | 353 | 10.0 | 11.0 | 0.00 | 0.04 | 0.04 | 73 | 1019.0 |
| 20260906020112 | 60 | 344 | 8.0 | 11.0 | 0.00 | 0.04 | 0.04 | 72 | 1018.9 |
| 20260906015606 | 60 | 4 | 8.0 | 13.0 | 0.00 | 0.04 | 0.04 | 72 | 1018.8 |
| 20260906015105 | 60 | 340 | 10.0 | 11.0 | 0.00 | 0.04 | 0.04 | 72 | 1018.7 |
| 20260906014600 | 60 | 325 | 4.0 | 10.0 | 0.00 | 0.04 | 0.04 | 71 | 1018.7 |
| 20260906014056 | 60 | 334 | 6.0 | 11.0 | 0.00 | 0.04 | 0.04 | 70 | 1018.6 |
| 20260906013552 | 61 | 332 | 8.0 | 14.0 | 0.00 | 0.04 | 0.04 | 69 | 1018.8 |
| 20260906013047 | 61 | 341 | 8.0 | 13.0 | 0.00 | 0.04 | 0.04 | 69 | 1018.6 |
| 20260906012542 | 61 | 343 | 6.0 | 10.0 | 0.00 | 0.04 | 0.04 | 69 | 1018.5 |
| 20260906012041 | 61 | 352 | 5.0 | 14.0 | 0.00 | 0.04 | 0.04 | 67 | 1018.4 |
| 20260906011537 | 62 | 339 | 8.0 | 13.0 | 0.00 | 0.04 | 0.04 | 68 | 1018.5 |
| 20260906011037 | 62 | 347 | 7.0 | 13.0 | 0.00 | 0.04 | 0.04 | 68 | 1018.6 |
| 20260906010533 | 62 | 330 | 10.0 | 15.0 | 0.00 | 0.04 | 0.04 | 67 | 1018.5 |
| 20260906010029 | 63 | 308 | 8.0 | 13.0 | 0.00 | 0.04 | 0.04 | 67 | 1018.7 |
| 20260906005528 | 63 | 304 | 8.0 | 17.0 | 0.00 | 0.04 | 0.04 | 67 | 1018.6 |
| 20260906005027 | 63 | 7 | 9.0 | 15.0 | 0.00 | 0.04 | 0.04 | 66 | 1018.5 |
| 20260906004526 | 63 | 323 | 15.0 | 22.0 | 0.00 | 0.04 | 0.04 | 66 | 1018.5 |
| 20260906004021 | 64 | 281 | 11.0 | 18.0 | 0.00 | 0.04 | 0.04 | 66 | 1018.4 |
| 20260906003516 | 64 | 7 | 9.0 | 13.0 | 0.00 | 0.04 | 0.04 | 66 | 1018.3 |
| 20260906003013 | 64 | 337 | 14.0 | 17.0 | 0.00 | 0.04 | 0.04 | 67 | 1018.6 |
| 20260906002507 | 64 | 310 | 12.0 | 18.0 | 0.00 | 0.04 | 0.04 | 67 | 1018.7 |
| 20260906002002 | 64 | 347 | 11.0 | 17.0 | 0.00 | 0.04 | 0.04 | 66 | 1018.7 |
| 20260906001458 | 64 | 337 | 10.0 | 15.0 | 0.00 | 0.04 | 0.04 | 66 | 1018.8 |
| 20260906000952 | 65 | 352 | 12.0 | 17.0 | 0.00 | 0.04 | 0.04 | 66 | 1018.7 |
| 20260906000448 | 65 | 313 | 11.0 | 15.0 | 0.00 | 0.04 | 0.04 | 65 | 1018.7 |
| 20260905235941 | 65 | 357 | 8.0 | 15.0 | 0.00 | 0.04 | 0.04 | 63 | 1018.5 |
| 20260905235436 | 65 | 352 | 11.0 | 15.0 | 0.00 | 0.04 | 0.04 | 63 | 1018.7 |
| 20260905234931 | 65 | 334 | 11.0 | 14.0 | 0.00 | 0.04 | 0.04 | 62 | 1018.8 |
| 20260905234427 | 66 | 324 | 11.0 | 17.0 | 0.00 | 0.04 | 0.04 | 62 | 1018.8 |
| 20260905233921 | 65 | 336 | 10.0 | 17.0 | 0.00 | 0.04 | 0.04 | 64 | 1018.7 |
| 20260905233416 | 66 | 318 | 11.0 | 17.0 | 0.00 | 0.04 | 0.04 | 64 | 1018.5 |
| 20260905232915 | 66 | 309 | 12.0 | 15.0 | 0.00 | 0.04 | 0.04 | 63 | 1018.4 |
| 20260905232411 | 66 | 302 | 10.0 | 16.0 | 0.00 | 0.04 | 0.04 | 63 | 1018.5 |
| 20260905231907 | 66 | 333 | 11.0 | 15.0 | 0.00 | 0.04 | 0.04 | 62 | 1018.5 |
| 20260905231403 | 67 | 341 | 9.0 | 17.0 | 0.00 | 0.04 | 0.04 | 59 | 1018.5 |
| 20260905230859 | 67 | 1 | 8.0 | 20.0 | 0.00 | 0.04 | 0.04 | 60 | 1018.5 |
| 20260905230356 | 67 | 327 | 12.0 | 16.0 | 0.00 | 0.04 | 0.04 | 59 | 1018.7 |
| 20260905225855 | 67 | 356 | 8.0 | 11.0 | 0.00 | 0.04 | 0.04 | 60 | 1018.5 |
| 20260905225351 | 67 | 357 | 13.0 | 16.0 | 0.00 | 0.04 | 0.04 | 60 | 1018.4 |